Location: Entrepierres
(44.1972°N, 5.9911°E)
Time: 12:26:21
(UTC+00:00)

Daily predictions for brighter satellites

Satellite Brightness Start Highest point End
(mag) Time Altitude Azimuth Time Altitude Azimuth Time Altitude Azimuth
Cosmos 2297 Rocket 2.3 16:26:46 10° NNW 16:32:20 53° ENE 16:37:50 10° SE
Cosmos 1538 Rocket 4.2 16:27:18 10° S 16:32:24 54° ESE 16:37:36 10° NNE
Cosmos 2227 Rocket 2.4 16:27:03 10° NNW 16:32:34 50° ENE 16:38:02 10° SE
USA 215 4.3 16:28:54 10° ENE 16:34:19 29° N 16:39:43 10° NW
Cosmos 2084 3.7 16:30:32 10° NW 16:34:50 74° SW 16:39:01 10° SSE
Cosmos 1869 3.9 16:31:58 10° SSE 16:35:36 37° E 16:39:14 10° NNE
Cosmos 1689 Rocket 4.0 16:36:08 10° N 16:38:53 31° WNW 16:41:38 10° SW
USA 229 DEB 3.7 16:34:07 10° SSW 16:40:38 74° ESE 16:47:28 10° NE
USA 229 3.7 16:34:14 10° SSW 16:40:44 73° ESE 16:47:33 10° NE
PSLV R/B 4.0 16:37:08 10° NNE 16:41:23 80° ESE 16:45:35 10° S
Cosmos 1356 Rocket 4.0 16:38:45 10° SSE 16:42:36 38° E 16:46:33 10° NNE
Okean O Rocket 2.9 16:40:15 10° S 16:44:28 46° W 16:48:43 10° NNW
Cosmos 1500 Rocket 3.8 16:40:24 10° NNW 16:44:46 74° W 16:49:05 10° S
NOSS 3-1 (C) 3.3 16:39:44 10° SSW 16:45:09 71° ESE 16:51:25 10° NE
NOSS 3-1 (A) 3.7 16:40:54 10° S 16:46:04 45° ESE 16:51:57 10° NE
PSLV R/B 3.8 16:44:27 10° WSW 16:46:50 36° S 16:49:13 10° ESE
Cosmos 2344 4.3 16:39:39 10° WSW 16:46:57 53° NW 16:55:08 10° NE
Genesis I 4.5 16:44:11 10° WSW 16:47:57 39° NW 16:51:44 10° NNE
Cosmos 1633 Rocket 4.1 16:44:50 10° NNE 16:48:27 24° ENE 16:52:03 10° SE
H-2A R/B 2.8 16:47:10 10° SSE 16:50:56 54° ENE 16:54:40 10° N
Cosmos 1238 Rocket 2.9 16:46:50 10° N 16:51:04 77° W 16:54:32 10° S
Cosmos 2263 Rocket 3.9 16:49:09 10° NNE 16:51:14 12° NE 16:53:20 10° ENE
Cosmos 2369 4.3 16:47:37 10° S 16:52:47 38° ESE 16:58:01 10° NE
AQUARIUS 4.1 16:49:55 10° SSE 16:54:21 66° ENE 16:58:50 10° N
SeaSat 1 3.0 16:50:03 10° ESE 16:54:33 37° NE 16:59:04 10° NNW
Cosmos 1464 Rocket 4.3 16:49:55 10° N 16:55:46 43° ENE 17:01:33 10° SSE
Lacrosse 4 Rocket 1.8 16:52:26 10° S 16:56:17 42° ESE 17:00:08 10° NE
Cosmos 1607 4.0 16:50:41 10° NW 16:56:55 88° WSW 17:03:13 10° SSE
Envisat 3.4 16:52:19 10° SE 16:57:00 39° ENE 17:01:43 10° N
NOAA 12 4.3 16:52:19 10° SE 16:57:26 50° ENE 17:02:35 10° N
Sich 1 3.3 16:53:39 10° N 16:57:52 47° ENE 17:02:06 10° SSE
ASTEX 1 4.3 16:54:31 10° N 16:59:23 53° W 17:04:13 10° SSW
Cosmos 1151 Rocket 4.3 16:56:34 10° SE 16:59:46 20° E 17:03:00 10° NE
CZ-4 R/B 2.5 16:57:45 10° ESE 17:01:00 23° ENE 17:04:12 10° NNE
Cosmos 1666 Rocket 4.0 16:57:48 10° N 17:01:54 38° ENE 17:05:57 10° SE
Cosmos 2082 3.8 16:56:31 10° NNW 17:02:02 53° ENE 17:07:30 10° SE
ATLAS 5 CENTAUR R/B 2.5 16:56:44 10° NW 17:02:36 85° SW 17:09:18 10° SSE
GEOS 3 Rocket 3.8 16:57:34 10° NE 17:02:45 61° SE 17:07:58 10° SSW
COSMO-SKYMED 1 3.5 16:59:07 10° NE 17:02:50 27° E 17:06:30 10° SSE
ERBS 2.2 17:00:31 10° SW 17:03:50 88° NNW 17:06:38 14° NE
Cosmos 1697 Rocket 3.0 17:00:07 10° S 17:05:27 45° ESE 17:10:49 10° NE
Cosmos 1633 2.9 17:02:39 10° N 17:06:10 42° ENE 17:09:37 10° SSE
Cosmos 2278 4.2 17:06:25 10° S 17:11:40 40° ESE 17:16:57 10° NE
Cosmos 2221 4.2 17:11:56 10° SW 17:15:54 35° WNW 17:19:55 10° N
Geosat 3.9 17:19:34 10° NNE 17:24:38 73° ESE 17:29:38 10° SSW
NOSS 2-3 (C) 3.8 17:21:19 10° SSW 17:25:33 57° ESE 17:28:59 18° NE
Cosmos 1656 3.9 17:21:54 10° SSW 17:27:26 72° WNW 17:32:56 10° NNE
YAOGAN 1 3.1 17:24:20 10° SE 17:28:14 35° ENE 17:32:10 10° N
Cosmos 2112 Rocket 4.2 17:24:58 10° S 17:29:58 49° ESE 17:34:25 13° NNE
Cosmos 1862 3.2 17:28:29 10° N 17:32:28 73° E 17:36:27 10° SSE
Cosmos 1470 Rocket 4.0 17:28:49 10° N 17:33:02 38° ENE 17:37:12 10° SE
Meteor 2-11 Rocket 4.4 17:28:16 10° N 17:34:19 60° ENE 17:40:22 10° SSE
YAOGAN 6 2.5 17:32:28 10° SSE 17:35:52 55° ENE 17:39:19 10° N
Cosmos 1680 Rocket 3.4 17:31:18 10° S 17:36:27 67° ESE 17:41:27 11° NNE
ATLAS 3B R/B 4.5 17:35:11 10° NNW 17:38:34 14° N 17:41:17 11° NNE
COBE Rocket 4.2 17:34:46 10° N 17:39:31 66° WNW 17:44:08 10° SSW
Ariane Rocket 4.0 17:40:34 25° NE 17:40:34 25° NE 17:44:13 10° N
CSL-04 Debris 4.2 17:38:37 10° SSE 17:43:58 56° ENE 17:49:20 10° N
SKYMED 2 3.5 17:46:46 10° NNE 17:51:09 87° ESE 17:55:29 10° SSW
Cosmos 2034 Rocket 4.0 17:47:41 10° N 17:54:05 86° E 18:00:29 10° S
Okean-O 3.9 17:52:16 10° S 17:56:28 42° W 18:00:42 10° NNW
CSL-04 Rocket 3.5 17:53:35 10° SSE 17:58:55 73° ENE 18:04:13 10° N
SL-16 R/B 4.0 18:02:33 10° SSE 18:03:46 15° SE 18:03:46 15° SE
Cosmos 1624 Rocket 3.9 18:02:30 10° NNW 18:07:52 72° ENE 18:11:43 19° SSE
Cosmos 2056 Rocket 3.3 18:03:21 10° NNW 18:08:29 70° ENE 18:11:21 27° SSE
Cosmos 1980 Rocket 2.1 18:04:45 10° SSW 18:10:25 82° ESE 18:13:25 29° NNE
Cosmos 1634 Rocket 4.0 18:07:19 10° N 18:13:24 54° ENE 18:19:24 10° SSE
APEX 3.5 18:11:11 10° SSW 18:14:01 51° SW 18:14:01 51° SW
Cosmos 2322 Rocket 4.4 18:11:17 10° SSE 18:11:21 10° SSE 18:11:21 10° SSE
Cosmos 2227 Rocket 4.4 18:11:41 10° NW 18:16:17 26° WSW 18:20:50 10° SSW
USA 215 3.7 18:14:46 37° NE 18:16:20 43° NNE 18:22:25 10° NW
Tsikada Rocket 4.0 18:11:53 10° S 18:18:15 90° NNW 18:24:43 10° N
Cosmos 2228 Rocket 4.1 18:16:54 10° S 18:19:23 32° SSE 18:19:23 32° SSE
BREEZE-M DEB (TANK) 3.4 18:23:39 10° WNW 18:28:05 35° NNW 18:28:05 35° NNW
SeaSat 1 4.1 18:27:37 10° S 18:32:03 33° WSW 18:36:31 10° NW
Lacrosse 4 Rocket 3.5 18:32:00 10° W 18:35:08 21° NW 18:36:36 17° NNW
CZ-4 R/B 3.1 18:32:06 10° SSW 18:35:51 33° W 18:39:34 10° NNW
DMSP B5D1-3 4.5 18:35:01 51° N 18:36:21 84° WNW 18:41:30 10° SSW
Cosmos 2263 Rocket 2.6 18:30:54 10° NNW 18:35:08 47° NNE 18:35:08 47° NNE
Cosmos 1151 Rocket 4.5 18:33:01 10° SW 18:37:03 36° WNW 18:40:55 11° N
COSMO-SKYMED 1 4.4 18:35:11 10° N 18:38:58 30° WNW 18:42:45 10° SW
Cosmos 1933 Rocket 4.1 18:36:35 10° NNW 18:40:50 55° W 18:41:19 52° WSW
Cosmos 1515 Rocket 4.5 18:38:19 10° SSW 18:42:34 47° WNW 18:43:38 39° NW
Cosmos 1697 Rocket 4.3 18:44:37 10° WSW 18:49:35 31° NW 18:53:17 16° N
CENTAUR R/B 4.1 19:05:06 10° NNW 19:10:25 31° NNE 19:10:25 31° NNE
ATLAS 3B R/B 4.4 19:25:57 10° NNW 19:28:31 20° N 19:28:31 20° N
Cosmos 1980 Rocket 4.4 19:51:08 10° W 19:55:09 19° NW 19:55:14 19° NW
